Вернуться в каталог

DIADEME 2

АктивенНаукаLEO
NORAD 2680·PAYLOAD·🇫🇷 France

Запущен Feb 15, 1967 с Hammaguir Space Track Range

Loading…

Ближайшие Пролёты (ближайшие 24 часа)

TLE

СвежийSource: Space-Track

Эпоха: Sep 14, 2026, 18:04 UTC

1 02680U 67014A   26257.75302917  .00000835  00000-0  35674-3 0  9994
2 02680  39.4399  59.2259 0700679 194.8364 163.0801 13.42204140888005

Отслеживайте DIADEME 2 в реальном времени с AllMySat

Download on the App Store